TimeEDT,TemperatureF,Dew PointF,Humidity,Sea Level PressureIn,VisibilityMPH,Wind Direction,Wind SpeedMPH,Gust SpeedMPH,PrecipitationIn,Events,Conditions,WindDirDegrees,DateUTC
12:53 AM,77.0,75.0,94,30.12,-9999.0,Calm,Calm,-,N/A,,Unknown,0,2013-08-22 04:53:00
1:53 AM,75.9,73.9,94,30.10,-9999.0,Calm,Calm,-,0.01,,Unknown,0,2013-08-22 05:53:00
2:53 AM,75.9,75.0,97,30.09,-9999.0,Calm,Calm,-,N/A,,Unknown,0,2013-08-22 06:53:00
3:53 AM,75.9,75.0,97,30.07,-9999.0,East,3.5,-,N/A,,Unknown,80,2013-08-22 07:53:00
4:53 AM,75.9,75.0,97,30.06,-9999.0,Calm,Calm,-,N/A,,Unknown,0,2013-08-22 08:53:00
5:53 AM,77.0,75.0,94,30.07,-9999.0,Calm,Calm,-,N/A,,Unknown,0,2013-08-22 09:53:00
6:53 AM,77.0,75.0,94,30.07,-9999.0,Calm,Calm,-,N/A,,Unknown,0,2013-08-22 10:53:00
7:53 AM,77.0,75.9,96,30.09,-9999.0,Calm,Calm,-,N/A,,Unknown,0,2013-08-22 11:53:00
8:53 AM,79.0,77.0,94,30.11,-9999.0,ENE,4.6,-,N/A,,Unknown,70,2013-08-22 12:53:00
9:53 AM,84.0,78.1,82,30.11,-9999.0,ESE,5.8,-,N/A,,Unknown,110,2013-08-22 13:53:00
10:53 AM,84.0,78.1,82,30.12,-9999.0,Variable,3.5,-,N/A,,Unknown,0,2013-08-22 14:53:00
11:53 AM,79.0,75.0,88,30.09,-9999.0,Calm,Calm,-,0.23,,Unknown,0,2013-08-22 15:53:00
12:53 PM,73.9,73.0,97,30.11,-9999.0,NW,16.1,-,0.48,,Unknown,310,2013-08-22 16:53:00
1:53 PM,73.0,71.1,93,30.13,-9999.0,NNE,4.6,-,1.41,,Unknown,20,2013-08-22 17:53:00
2:53 PM,72.0,70.0,93,30.12,-9999.0,North,8.1,-,0.33,,Unknown,360,2013-08-22 18:53:00
3:53 PM,73.0,72.0,96,30.09,-9999.0,Variable,5.8,-,0.15,,Unknown,0,2013-08-22 19:53:00
4:53 PM,75.0,73.0,94,30.06,-9999.0,Variable,5.8,-,0.03,,Unknown,0,2013-08-22 20:53:00
5:53 PM,78.1,73.0,84,30.05,-9999.0,ENE,4.6,-,N/A,,Unknown,60,2013-08-22 21:53:00
6:53 PM,78.1,73.0,84,30.03,-9999.0,ESE,6.9,-,N/A,,Unknown,110,2013-08-22 22:53:00
7:53 PM,75.9,72.0,87,30.03,-9999.0,ESE,3.5,-,N/A,,Unknown,110,2013-08-22 23:53:00
8:53 PM,73.9,72.0,93,30.03,-9999.0,Calm,Calm,-,N/A,,Unknown,0,2013-08-23 00:53:00
9:53 PM,73.0,72.0,96,30.04,-9999.0,NE,3.5,-,0.01,,Unknown,50,2013-08-23 01:53:00
10:53 PM,73.0,72.0,96,30.06,-9999.0,ENE,3.5,-,N/A,,Unknown,70,2013-08-23 02:53:00
11:53 PM,73.0,72.0,96,30.06,-9999.0,Calm,Calm,-,N/A,,Unknown,0,2013-08-23 03:53:00